Stations météo

réclame
Mon MeteoGroup
Dax, France (7603): Température de l'air & dewpoint: 16.09.2018 07:00:00 - 22.09.2018 07:00:00 (CEST)Dax, France (7603): Température de l'air 5cm: 16.09.2018 07:00:00 - 22.09.2018 07:00:00 (CEST)Dax, France (7603): Température de l'air -100cm: 16.09.2018 07:00:00 - 22.09.2018 07:00:00 (CEST)Dax, France (7603): Vitesse du vent & gusts: 16.09.2018 07:00:00 - 22.09.2018 07:00:00 (CEST)Dax, France (7603): Direction du vent: 16.09.2018 07:00:00 - 22.09.2018 07:00:00 (CEST)Dax, France (7603): reduced air pressure: 16.09.2018 07:00:00 - 22.09.2018 07:00:00 (CEST)Dax, France (7603): visibility: 16.09.2018 07:00:00 - 22.09.2018 07:00:00 (CEST)Dax, France (7603): Ensoleillement: 16.09.2018 07:00:00 - 22.09.2018 07:00:00 (CEST)Dax, France (7603): Quantités de précipitations: 16.09.2018 07:00:00 - 22.09.2018 07:00:00 (CEST)
Date & Time tt [°C] td [°C] tt 5cm [°C] tt -100cm [°C] ff [km/h] ff [knt] fx [km/h] fx [knt] dd ppp [hPa] vv [km] sd [min] rr [mm]
22.09.2018 07:00:00 16,2 14,2 16,1 22,0 9 5 17 9 NE 1023,1 10 0 0,0
22.09.2018 06:00:00 16,4 15,3 15,4 22,0 4 2 10 6 NNE 1023,4 10 0 0,0
22.09.2018 05:00:00 16,6 15,0 16,5 22,0 7 4 13 7 ESE 1023,5 10 0 0,0
22.09.2018 04:00:00 17,2 15,2 17,0 22,1 9 5 15 8 NE 1024,2 3,3 0 0,0
22.09.2018 03:00:00 17,4 15,2 17,1 22,0 10 6 15 8 NE 1024,4 11 0 0,0
22.09.2018 02:00:00 18,0 16,0 17,1 22,0 6 4 11 6 NE 1024,8 11 0 0,0
22.09.2018 01:00:00 18,0 15,8 17,2 22,0 4 2 7 4 E 1024,7 13 0 0,0
22.09.2018 00:00:00 18,7 16,1 18,7 22,0 6 3 11 6 N 1025,0 14 0 0,0
21.09.2018 23:00:00 19,0 16,0 18,6 22,0 7 4 10 5 ENE 1024,4 22 0 0,0
21.09.2018 22:00:00 19,3 16,3 19,1 22,0 6 3 12 6 NNE 1024,6 30 0 0,0
21.09.2018 21:00:00 19,2 16,8 19,1 22,0 4 2 9 5 WNW 1023,7 41 0 0,0
21.09.2018 20:00:00 19,6 16,6 19,4 22,0 4 2 15 8 WNW 1023,2 10 0 0,0
21.09.2018 19:00:00 20,0 17,2 19,8 22,0 8 4 18 10 NNW 1022,8 9 0 0,0
21.09.2018 18:00:00 20,6 17,0 19,6 22,0 14 8 31 17 NNW 1022,0 32 0 0,0
21.09.2018 17:00:00 22,7 16,7 22,7 22,0 16 9 34 18 W 1021,7 21 0 0,0
21.09.2018 16:00:00 23,6 15,4 24,4 22,0 18 10 32 18 W 1021,1 23 0 0,0
21.09.2018 15:00:00 25,0 16,2 26,7 22,0 14 8 30 16 W 1020,6 10 5 0,0
21.09.2018 14:00:00 25,4 16,5 26,1 22,0 16 9 30 16 WSW 1020,9 10 47 0,0
21.09.2018 13:00:00 24,4 15,9 25,4 22,0 14 8 25 14 W 1021,0 10 27 0,0
21.09.2018 12:00:00 23,1 18,6 23,3 22,0 9 5 18 10 W 1021,1 7 0 0,0
21.09.2018 11:00:00 21,6 19,2 20,8 22,0 9 5 16 9 WSW 1020,7 4,5 1 0,0
21.09.2018 10:00:00 19,1 18,4 18,8 22,0 6 3 11 6 S 1019,9 4,0 0 0,0
21.09.2018 09:00:00 18,2 17,6 16,5 22,0 4 2 11 6 S 1019,3 5 2 0,0
21.09.2018 08:00:00 17,5 17,0 16,1 22,0 4 2 9 5 S 1018,3 3,0 0 0,2
21.09.2018 07:00:00 17,1 16,6 16,2 22,0 4 2 10 6 S 1017,7 2,8 0 0,0
21.09.2018 06:00:00 17,7 17,1 17,0 22,0 0 0 9 5 N 1017,6 5 0 0,0
21.09.2018 05:00:00 17,8 17,0 17,1 22,0 3 1 7 4 S 1017,5 6 0 0,0
21.09.2018 04:00:00 17,8 17,0 17,2 22,0 4 2 7 4 SSE 1017,3 6 0 0,0
21.09.2018 03:00:00 18,6 17,8 17,4 22,0 3 1 5 3 WSW 1017,6 7 0 0,0
21.09.2018 02:00:00 18,8 17,6 17,8 22,0 3 2 7 4 S 1017,5 7 0 0,0
21.09.2018 01:00:00 19,1 17,8 18,3 22,0 4 2 10 5 SSW 1017,6 7 0 0,0
21.09.2018 00:00:00 19,5 18,0 19,3 22,0 6 4 18 10 W 1017,7 8 0 0,0
20.09.2018 23:00:00 20,0 17,0 19,8 22,0 10 5 16 9 WSW 1017,4 11 0 0,0
20.09.2018 22:00:00 20,8 17,0 20,5 22,0 9 5 18 10 W 1017,1 13 0 0,0
20.09.2018 21:00:00 22,2 16,9 21,9 22,0 8 4 16 9 WSW 1016,0 15 0 0,0
20.09.2018 20:00:00 24,9 17,4 24,4 22,0 9 5 19 10 WNW 1015,4 14 28 0,0
20.09.2018 19:00:00 30,4 18,5 31,6 22,0 5 3 19 10 WNW 1015,1 23 60 0,0
20.09.2018 18:00:00 31,1 17,4 33,7 22,0 5 3 12 7 SE 1015,1 22 60 0,0
20.09.2018 17:00:00 31,4 17,7 34,2 22,0 4 2 14 8 SSW 1015,8 15 60 0,0
20.09.2018 16:00:00 30,2 18,0 32,8 21,9 6 3 16 9 SSE 1016,4 15 60 0,0
20.09.2018 15:00:00 29,1 17,6 31,2 22,0 6 4 24 13 ESE 1017,0 12 60 0,0
20.09.2018 14:00:00 27,8 18,5 30,3 22,0 7 4 17 9 ESE 1017,9 10 60 0,0
20.09.2018 13:00:00 25,9 17,5 27,6 22,0 6 4 16 9 ENE 1018,9 10 60 0,0
20.09.2018 12:00:00 24,1 16,6 25,6 22,0 7 4 13 7 ESE 1019,6 16 60 0,0
20.09.2018 11:00:00 21,7 17,5 22,4 22,0 5 3 11 6 ESE 1020,0 6 60 0,0
20.09.2018 10:00:00 19,0 16,8 18,4 22,0 5 3 8 5 SSE 1020,2 6 60 0,0
20.09.2018 09:00:00 16,9 16,3 15,5 22,0 4 2 7 4 ESE 1020,5 4,0 49 0,0
20.09.2018 08:00:00 16,0 15,4 14,6 22,0 3 2 5 3 N 1020,7 4,0 0 0,0
20.09.2018 07:00:00 16,1 15,6 15,1 22,0 0 0 3 2 N 1020,9 5 0 0,0
20.09.2018 06:00:00 16,4 15,8 15,1 22,0 2 1 5 3 S 1021,0 6 0 0,0
20.09.2018 05:00:00 17,0 16,2 15,5 21,9 2 1 4 2 SSW 1021,3 6 0 0,0
20.09.2018 04:00:00 17,7 16,6 17,0 22,0 3 2 6 3 WSW 1021,6 7 0 0,0
20.09.2018 03:00:00 18,3 17,0 17,8 22,0 3 1 8 4 SW 1022,1 8 0 0,0
20.09.2018 02:00:00 18,4 16,9 18,0 22,0 4 2 12 6 W 1022,1 9 0 0,0
20.09.2018 01:00:00 18,5 16,7 17,8 22,0 7 4 13 7 W 1022,1 10 0 0,0
20.09.2018 00:00:00 18,6 16,2 18,2 21,9 6 3 11 6 WSW 1022,1 11 0 0,0
19.09.2018 23:00:00 19,3 16,3 18,7 22,0 4 2 11 6 WSW 1021,8 12 0 0,0
19.09.2018 22:00:00 20,6 16,2 20,2 22,0 7 4 12 7 W 1021,3 16 0 0,0
19.09.2018 21:00:00 22,0 16,3 21,4 21,9 7 4 12 7 W 1020,7 20 0 0,0
19.09.2018 20:00:00 24,0 16,8 23,6 21,9 8 5 22 12 W 1020,4 16 46 0,0
19.09.2018 19:00:00 26,3 17,4 27,7 21,9 11 6 21 12 WNW 1020,2 18 60 0,0
19.09.2018 18:00:00 28,1 17,9 30,7 21,9 11 6 24 13 WNW 1019,6 19 55 0,0
19.09.2018 17:00:00 30,1 18,2 33,5 21,9 4 2 12 7 N 1019,4 15 60 0,0
19.09.2018 16:00:00 28,8 18,0 32,2 22,0 6 3 17 9 NW 1019,8 15 60 0,0
19.09.2018 15:00:00 27,8 18,2 30,6 21,9 6 3 15 8 N 1020,4 15 60 0,0
19.09.2018 14:00:00 27,1 18,4 29,7 21,9 5 3 16 9 NW 1020,8 15 60 0,0
19.09.2018 13:00:00 25,6 18,0 29,4 21,9 8 5 16 9 NE 1021,3 12 60 0,0
19.09.2018 12:00:00 24,3 17,5 25,8 21,9 5 3 18 10 E 1021,7 12 52 0,0
19.09.2018 11:00:00 22,7 17,8 23,2 21,9 7 4 17 9 E 1021,7 10 60 0,0
19.09.2018 10:00:00 20,7 18,3 20,4 21,9 8 4 14 7 E 1021,3 8 60 0,0
19.09.2018 09:00:00 18,2 17,7 16,5 21,9 0 0 6 3 N 1021,0 4,0 24 0,0
19.09.2018 08:00:00 17,4 16,8 16,3 21,9 2 1 5 3 N 1020,4 6 0 0,2
19.09.2018 07:00:00 17,6 17,1 16,4 21,9 0 0 5 3 N 1020,2 9 0 0,0
19.09.2018 06:00:00 17,7 17,1 16,3 21,9 3 2 7 4 SE 1019,9 7 0 0,0
19.09.2018 05:00:00 18,4 17,4 17,6 21,9 5 3 8 4 S 1019,9 9 0 0,0
19.09.2018 04:00:00 19,2 17,7 18,9 21,9 4 2 13 7 NNW 1020,0 10 0 0,0
19.09.2018 03:00:00 19,0 18,0 18,3 21,9 6 4 11 6 W 1020,2 10 0 0,0
19.09.2018 02:00:00 18,9 18,1 18,6 21,9 7 4 13 7 W 1020,0 8 0 0,0
19.09.2018 01:00:00 19,3 18,0 18,8 21,9 5 3 12 6 W 1019,9 9 0 0,0
19.09.2018 00:00:00 19,8 18,3 19,5 21,9 8 4 15 8 WSW 1019,6 9 0 0,0
18.09.2018 23:00:00 19,8 17,8 19,7 21,9 9 5 16 8 WSW 1019,1 10 0 0,0
18.09.2018 22:00:00 20,4 17,6 20,2 21,9 10 5 19 10 W 1018,6 10 0 0,0
18.09.2018 21:00:00 22,2 17,6 22,0 21,9 11 6 19 11 WSW 1017,7 10 0 0,0
18.09.2018 20:00:00 24,5 17,0 24,1 21,9 8 4 18 10 W 1016,8 22 31 0,0
18.09.2018 19:00:00 26,7 17,2 27,9 21,9 10 5 22 12 W 1016,0 20 60 0,0
18.09.2018 18:00:00 27,9 17,4 30,4 21,9 13 7 24 13 WNW 1015,6 20 60 0,0
18.09.2018 17:00:00 28,7 17,9 31,4 21,9 18 10 24 13 WSW 1015,3 15 60 0,0
18.09.2018 16:00:00 29,4 17,2 28,2 21,9 8 4 18 10 WSW 1015,4 15 38 0,0
18.09.2018 15:00:00 27,8 17,3 28,7 21,9 5 3 17 9 WNW 1015,7 15 31 0,0
18.09.2018 14:00:00 26,0 18,7 27,6 21,9 8 5 17 9 WSW 1016,1 17 11 0,0
18.09.2018 13:00:00 25,8 19,0 27,4 21,9 9 5 14 8 W 1016,5 16 23 0,0
18.09.2018 12:00:00 25,1 18,8 26,5 21,9 6 3 11 6 W 1016,7 15 36 0,0
18.09.2018 11:00:00 24,2 19,3 25,9 21,9 3 2 11 6 SW 1016,8 10 60 0,0
18.09.2018 10:00:00 22,2 19,2 22,8 21,9 3 2 10 6 SW 1016,5 8 60 0,0
18.09.2018 09:00:00 19,7 18,4 17,6 21,9 2 1 5 3 SE 1016,1 6 53 0,0
18.09.2018 08:00:00 18,4 17,6 17,1 21,9 3 2 8 5 S 1015,7 5 0 0,0
18.09.2018 07:00:00 18,4 17,1 17,4 21,9 4 2 9 5 S 1015,3 8 0 0,0
18.09.2018 06:00:00 19,0 17,5 17,9 21,9 5 3 11 6 S 1015,3 9 0 0,0
18.09.2018 05:00:00 19,3 17,8 18,1 21,9 3 2 9 5 SE 1015,3 9 0 0,0
18.09.2018 04:00:00 19,9 17,9 19,5 21,9 5 3 9 5 SSW 1015,0 9 0 0,0
18.09.2018 03:00:00 20,5 17,9 20,0 21,9 7 4 9 5 S 1014,6 9 0 0,0
18.09.2018 02:00:00 22,0 17,1 21,4 21,9 3 2 11 6 WNW 1014,7 13 0 0,0
18.09.2018 01:00:00 22,3 17,9 21,9 21,9 7 4 19 11 WNW 1014,9 11 0 0,0
18.09.2018 00:00:00 23,8 18,2 23,4 21,9 8 5 24 13 W 1013,9 20 0 0,0
17.09.2018 23:00:00 24,3 20,2 22,7 21,9 9 5 30 16 SSW 1014,2 18 0 0,0
17.09.2018 22:00:00 26,1 19,2 24,6 21,9 2 1 10 5 NNW 1013,3 29 0 0,0
17.09.2018 21:00:00 28,0 18,7 26,5 21,9 6 4 11 6 E 1012,8 27 0 0,0
17.09.2018 20:00:00 29,3 18,4 27,6 21,9 8 4 15 8 ENE 1012,0 30 47 0,0
17.09.2018 19:00:00 32,1 18,3 33,0 21,9 10 6 16 9 E 1012,1 30 53 0,0
17.09.2018 18:00:00 32,9 17,9 33,6 21,9 9 5 16 9 E 1012,4 23 54 0,0
17.09.2018 17:00:00 33,4 17,6 35,9 21,9 6 4 17 9 ESE 1013,0 15 60 0,0
17.09.2018 16:00:00 33,3 17,9 35,2 21,9 7 4 22 12 SE 1013,6 15 60 0,0
17.09.2018 15:00:00 31,6 18,2 33,9 21,9 11 6 23 12 E 1014,3 15 60 0,0
17.09.2018 14:00:00 30,2 18,3 31,7 21,9 12 6 25 14 ESE 1014,9 15 60 0,0
17.09.2018 13:00:00 28,2 18,3 28,7 21,9 16 9 27 14 E 1015,5 15 60 0,0
17.09.2018 12:00:00 25,4 18,1 26,0 21,9 19 10 28 15 E 1016,2 15 60 0,0
17.09.2018 11:00:00 23,3 18,2 22,8 21,9 17 9 30 16 E 1016,8 10 60 0,0
17.09.2018 10:00:00 20,2 18,0 18,0 21,9 11 6 17 9 ESE 1017,2 6 55 0,0
17.09.2018 09:00:00 17,4 17,1 16,5 21,9 9 5 15 8 E 1017,7 0,9 0 0,0
17.09.2018 08:00:00 16,8 16,3 16,5 21,9 6 4 14 7 ESE 1017,8 2,0 0 0,0
17.09.2018 07:00:00 17,3 16,8 16,9 21,9 7 4 12 6 ESE 1018,0 5 0 0,0
17.09.2018 06:00:00 18,0 17,4 17,4 21,9 6 3 10 5 E 1018,4 8 0 0,0
17.09.2018 05:00:00 18,9 17,7 18,6 21,9 5 3 8 4 SE 1018,7 13 0 0,0
17.09.2018 04:00:00 18,7 17,5 18,4 21,9 4 2 5 3 SE 1019,3 15 0 0,0
17.09.2018 03:00:00 18,4 17,7 17,6 21,9 2 1 5 3 SSE 1019,9 12 0 0,0
17.09.2018 02:00:00 18,4 17,7 17,4 21,9 3 2 8 4 SSE 1020,3 10 0 0,0
17.09.2018 01:00:00 19,0 17,8 18,3 21,9 4 2 8 4 SSW 1020,3 12 0 0,0
17.09.2018 00:00:00 19,4 18,2 19,1 21,9 4 2 9 5 WSW 1021,0 14 0 0,0
16.09.2018 23:00:00 19,6 18,4 19,2 21,9 5 3 10 5 WSW 1021,1 13 0 0,0
16.09.2018 22:00:00 20,1 18,4 19,7 21,9 6 3 11 6 WSW 1021,0 15 0 0,0
16.09.2018 21:00:00 20,8 18,6 20,7 21,9 7 4 14 7 WSW 1020,7 15 0 0,0
16.09.2018 20:00:00 21,8 18,4 21,7 21,9 7 4 18 10 WSW 1020,4 17 0 0,0
16.09.2018 19:00:00 22,7 18,2 23,0 21,9 10 5 22 12 W 1020,2 15 0 0,0
16.09.2018 18:00:00 23,2 18,1 24,3 21,9 13 7 27 14 W 1020,0 21 7 0,0
16.09.2018 17:00:00 25,1 17,8 27,1 21,9 16 9 30 16 WSW 1019,9 21 60 0,0
16.09.2018 16:00:00 26,2 17,8 28,9 22,0 16 9 28 15 W 1019,9 25 60 0,0
16.09.2018 15:00:00 26,7 17,7 29,6 21,9 15 8 27 15 W 1019,8 24 60 0,0
16.09.2018 14:00:00 27,0 18,3 29,7 22,0 16 9 24 13 WSW 1019,9 19 60 0,0
16.09.2018 13:00:00 26,3 18,4 28,9 21,9 13 7 25 13 W 1020,0 24 60 0,0
16.09.2018 12:00:00 24,9 19,3 25,4 22,0 11 6 20 11 W 1020,0 20 60 0,0
16.09.2018 11:00:00 21,5 17,9 21,9 22,0 8 5 16 8 W 1020,2 20 55 0,0
16.09.2018 10:00:00 18,0 15,3 18,7 22,0 5 3 8 5 W 1020,0 22 60 0,0
16.09.2018 09:00:00 16,4 14,4 13,7 22,0 2 1 6 3 ENE 1019,6 20 51 0,0
16.09.2018 08:00:00 13,9 12,9 12,9 22,0 4 2 6 3 E 1019,0 17 0 0,0
16.09.2018 07:00:00 14,4 13,4 13,4 22,0 4 2 10 5 E 1018,5 19 0 0,0

tt = Température de l'air
td = dewpoint
tt 5cm = Température de l'air 5cm
tt -100cm = Température de l'air -100cm
ff = Vitesse du vent
fx = gusts
dd = Direction du vent
ppp = reduced air pressure
vv = visibility
sd = Ensoleillement
rr = Quantités de précipitations

stations d'obs. à proximité